NOAA 16 DEB, 41265

Orbit data source: Space-Track

NOAA 16 DEB, 41265 is space debris in SSO originally from a launch on Thu, 21 Sep 2000 UTC launched from the Air Force Western Test Range (AFWTR). Debris objects in space refer to the collection of defunct objects orbiting the Earth. Examples of debris include non-operational satellites, rocket bodies, and fragments generated from explosions, collisions, or faulty payload assembly.

Loading next visibility...
Identifier
41265, 2000-055FR
Orbit
SSO
Country
Flag of USUS
Related business
Manufacturer
Unknown
Mission
Spacecraft
Bus & Motor
Unknown
Mass
Unknown
Launch date (UTC)
2000-09-21 (25 years ago)
Launch vehicle
Unknown
Launch site
Air Force Western Test Range (AFWTR)
Object type
Payload
Rocket body
Debris
Shape & HBR
Unknown shape, 0.1 m
Radar Cross Section
Small (<0.1 m²)

Expand to show TLE details & history
Last TLE update: 17 hours ago

TLE from 17 hours ago
0 NOAA 16 DEB
1 41265U 00055FR  25349.75534245  .00003332  00000-0  14708-2 0  9999
2 41265  98.6356 352.3665 0029844 349.9325  10.1253 14.23729441513872
Epoch: 2025-12-15T18:07Z
TLE epoch observation values (Epoch: 2025-12-15T18:07:41.587Z)
Latitude
0.00003°
Longitude
-4.20614°
Altitude
794.561 km
Speed
7.467 km/s
True Right ascension
23h 29m 27s
True Declination
0° 00' 00"
Sunlit
Object was in daylight at epoch
Visualization orbit readout
Latitude
Unknown
Longitude
Unknown
Altitude
Unknown
Speed
Unknown
Apparent Right ascension
Unknown
Apparent Declination
Unknown
Sunlit
N/A
Visualization observer readout
Local Sidereal Time
09:43:58
Azimuth
Unknown
Elevation
Unknown
Doppler factor
Unknown
Orbital elements
Apogee altitude
831.37 km
Perigee altitude
788.466 km
Semi-major axis
7,188.055 km
Eccentricity
0.00298
Inclination
98.6356°
RAAN
352.3665°
Arg. of periapsis
349.9325°
True anomaly
10.18564°
Mean anomaly
10.1253°
Eccentric anomaly
10.15545°
Mean motion
3.56144 °/min
Orbital period
101.08 mins
BSTAR
0.0014708
Loading maneuver chart data...
Computing Atmospheric mass density...
Loading historical data...
Loading historical data...
Loading historical data...
Loading historical data...
Loading historical data...
Loading historical data...
Loading historical data...

Documentation

Showing up to 5 results
|